Weather History for New River MCAS, NC

Change the Weather History Date:

Sunday, May 5, 2013

  Actual Average Record
Temperature  
Mean Temperature 62 °F -  
Max Temperature 72 °F 77 °F 90 °F (2012)
Min Temperature 53 °F 54 °F 41 °F (1997)
Degree Days  
Heating Degree Days 3    
Growing Degree Days 12 (Base 50)    
Moisture  
Dew Point 57 °F    
Average Humidity 85    
Maximum Humidity 94    
Minimum Humidity 70    
Precipitation  
Precipitation 0.00 in - - ()
Sea Level Pressure  
Sea Level Pressure 30.02 in    
Wind  
Wind Speed 12 mph (NE)    
Max Wind Speed 18 mph    
Max Gust Speed 24 mph    
Visibility 9 miles    
Events      
Averages and records for this station are not official NWS values.
T = Trace of Precipitation, MM = Missing Value Source: NWS Daily Summary

Daily Weather History Graph

Daily Weather History Graph

Search for Another Location

Airport:

Trip Planner

Search our weather history database for the weather conditions in past years. The results will help you decide how hot, cold, wet, or windy it might be!

Date:

Astronomy

May. 05, 2013 Rise Set
Actual Time 6:15 AM EDT 7:58 PM EDT
Civil Twilight 5:47 AM EDT 8:25 PM EDT
Nautical Twilight 5:15 AM EDT 8:58 PM EDT
Astronomical Twilight 4:40 AM EDT 9:33 PM EDT
Moon 3:34 AM EDT (5/5) 4:04 PM EDT (5/5)
Length of Visible Light 14h 37m
Length of Day
13h 42m
Waning Crescent, 18% of the Moon is Illuminated
May 5
Waning Crescent
May 9
New
May 18
First Quarter
May 25
Full
May 31
Last Quarter

Hourly Weather History & Observations

Time (EDT) Temp. Dew Point Humidity Pressure Visibility Wind Dir Wind Speed Gust Speed Precip Events Conditions
12:32 AM 55.4 °F 51.8 °F 88% 30.05 in 9.0 mi NNE 16.1 mph 23.0 mph N/A   Mostly Cloudy
12:41 AM 55.4 °F 51.8 °F 88% 30.05 in 9.0 mi NE 13.8 mph 23.0 mph N/A   Scattered Clouds
12:56 AM 55.0 °F 51.1 °F 86% 30.06 in 9.0 mi NE 10.4 mph - N/A   Scattered Clouds
1:12 AM 55.4 °F 51.8 °F 88% 30.05 in 9.0 mi NE 9.2 mph 18.4 mph N/A   Mostly Cloudy
1:56 AM 55.0 °F 51.1 °F 86% 30.06 in 9.0 mi NE 10.4 mph - N/A   Overcast
2:40 AM 55.4 °F 51.8 °F 88% 30.02 in 9.0 mi NNE 8.1 mph - N/A   Overcast
2:56 AM 54.0 °F 51.1 °F 90% 30.02 in 5.0 mi NNE 11.5 mph 17.3 mph N/A   Overcast
3:34 AM 53.6 °F 51.8 °F 94% 30.01 in 8.0 mi NNE 10.4 mph - N/A   Overcast
3:56 AM 54.0 °F 51.1 °F 90% 30.01 in 8.0 mi NNE 8.1 mph - N/A   Overcast
4:56 AM 54.0 °F 52.0 °F 93% 30.01 in 8.0 mi NE 9.2 mph - N/A   Overcast
5:09 AM 55.4 °F 51.8 °F 88% 30.01 in 8.0 mi NE 6.9 mph - N/A   Overcast
5:56 AM 55.0 °F 53.1 °F 93% 30.02 in 8.0 mi NE 5.8 mph - N/A   Overcast
6:56 AM 55.0 °F 53.1 °F 93% 30.02 in 6.0 mi NE 12.7 mph - N/A   Overcast
7:56 AM 57.0 °F 54.0 °F 89% 30.03 in 6.0 mi NE 11.5 mph - N/A   Overcast
8:56 AM 59.0 °F 55.0 °F 87% 30.04 in 7.0 mi ENE 10.4 mph - N/A   Overcast
9:24 AM 62.6 °F 55.4 °F 77% 30.03 in 8.0 mi ENE 13.8 mph - N/A   Overcast
9:56 AM 63.0 °F 57.0 °F 81% 30.04 in 9.0 mi ENE 11.5 mph - N/A   Mostly Cloudy
10:56 AM 66.0 °F 59.0 °F 78% 30.04 in 9.0 mi NE 13.8 mph - N/A   Mostly Cloudy
11:09 AM 66.2 °F 59.0 °F 78% 30.03 in 10.0 mi ENE 11.5 mph - N/A   Mostly Cloudy
11:35 AM 68.0 °F 60.8 °F 78% 30.02 in 10.0 mi ENE 17.3 mph 20.7 mph N/A   Scattered Clouds
11:56 AM 69.1 °F 60.1 °F 73% 30.02 in 10.0 mi ENE 13.8 mph - N/A   Scattered Clouds
12:19 PM 69.8 °F 60.8 °F 73% 30.01 in 10.0 mi ENE 16.1 mph - N/A   Mostly Cloudy
12:56 PM 71.1 °F 61.0 °F 70% 30.01 in 10.0 mi ENE 18.4 mph - N/A   Mostly Cloudy
1:56 PM 71.1 °F 61.0 °F 70% 30.01 in 10.0 mi East 12.7 mph - N/A   Mostly Cloudy
2:56 PM 70.0 °F 61.0 °F 73% 30.01 in 10.0 mi East 9.2 mph - N/A   Mostly Cloudy
3:56 PM 69.1 °F 62.1 °F 78% 29.99 in 10.0 mi East 12.7 mph - N/A   Mostly Cloudy
4:56 PM 69.1 °F 62.1 °F 78% 29.99 in 10.0 mi ENE 13.8 mph - N/A   Mostly Cloudy
5:56 PM 68.0 °F 62.1 °F 81% 29.99 in 10.0 mi ENE 12.7 mph - N/A   Overcast
6:56 PM 66.9 °F 62.1 °F 84% 29.98 in 9.0 mi ENE 12.7 mph - N/A   Mostly Cloudy
7:56 PM 64.0 °F 61.0 °F 90% 29.99 in 9.0 mi ENE 15.0 mph - N/A   Partly Cloudy
8:56 PM 63.0 °F 60.1 °F 90% 29.99 in 10.0 mi ENE 15.0 mph 21.9 mph N/A   Scattered Clouds
9:08 PM 62.6 °F 60.8 °F 94% 29.98 in 10.0 mi ENE 17.3 mph 24.2 mph N/A   Mostly Cloudy
9:56 PM 63.0 °F 60.1 °F 90% 30.00 in 9.0 mi ENE 15.0 mph - N/A   Mostly Cloudy
10:09 PM 62.6 °F 60.8 °F 94% 29.99 in 9.0 mi ENE 12.7 mph - N/A   Overcast
10:56 PM 63.0 °F 60.1 °F 90% 30.00 in 9.0 mi ENE 11.5 mph - N/A   Overcast
11:56 PM 63.0 °F 60.1 °F 90% 29.99 in 9.0 mi ENE 10.4 mph - N/A   Overcast